{"data":{"norad_id":49741,"epoch":"2026-09-19T23:05:10.987008Z","epoch_age_seconds":91451,"freshness":"FRESH","line1":"1 49741U 21115T   26262.96193272  .00000751  00000+0  35950-4 0  9990","line2":"2 49741  53.1608 342.2948 0001264  74.8466 285.2675 15.31703226265064","mean_motion":15.31703226,"eccentricity":0.0001264,"inclination_deg":53.1608,"raan_deg":342.2948,"arg_perigee_deg":74.8466,"mean_anomaly_deg":285.2675,"bstar":3.595e-5,"rev_number":26506,"period_min":94.012989955014,"perigee_km":469.86468186773,"apogee_km":471.59607554106,"semimajor_km":6848.8673787044,"source":"CELESTRAK","updated_at":"2026-09-20T09:00:39.406406Z"}}